Weather in Sharapovo

Russia / Nizhny Novgorod Oblast'     55°16′18″N   44°42′56″E
temp.,
°C
wind,
m/s
gust,
m/s
humid.,
%
clouds,
%
prec.,
mm/h
press.,
hPa
HPBL,
m
9 march, tue
tue900:00−14wnw349622 0.0 100542
03:00−16w449730 0.0 100764
06:00−17wnw349896 0.1 100963
09:00−14nw359595 0.1 1010239
12:00−12nw469295 0.1 1011405
15:00−11nnw479097 0.1 1011559
18:00−14nnw4995100 0.0 1013210
21:00−16nw499696 0.1 1014206
10 march, wed
wed1000:00−17nw4897100 0.1 1015203
03:00−20nnw4899100 0.1 1017170
06:00−21nnw5997100 0.1 1018283
09:00−21nnw5896100 0.1 1020337
12:00−20nnw5894100 0.0 1021427
15:00−19nnw5892100 0.1 1023540
18:00−21nw4897100 0.0 1024186
21:00−23nw469998 0.1 102690
11 march, thu
thu1100:00−24nw44980 0.0 102660
03:00−23wnw479825 0.0 1028133
06:00−23wnw499999 0.1 1028178
09:00−21wnw6109591 0.1 1028260
12:00−15wnw7118889 0.0 1028406
15:00−11nw7118482 0.0 1027521
18:00−13nw5119163 0.0 1028231
21:00−16nw479531 0.0 1029120
12 march, fri
fri1200:00−18nw44960 0.0 103165
03:00−19wnw34970 0.0 103132
06:00−20w34920 0.0 103329
09:00−17w35940 0.0 1033170
12:00−12wsw35860 0.0 1033317
15:00−9sw36840 0.0 1032464
18:00−13ssw47930 0.0 103288
21:00−16ssw48880 0.0 1032104
13 march, sat
sat1300:00−17ssw410900 0.0 1033144
03:00−17ssw510920 0.0 1032200
06:00−18ssw512920 0.0 1031211
09:00−16s611900 0.0 1031289
12:00−11s7128727 0.0 1029509
15:00−8s8138164 0.0 1027721
18:00−9s71483100 0.0 1026724
21:00−9ssw81489100 0.1 1025742